,,,PA_Meas_PMT16A,,PR_Meas_QMR101_102,,RH_Meas_QMH101,,SR_Meas_QMS101,,TA_Meas_QMH101,,GenWind,,GenWind,
date,time,status,PA,status,PR,status,RH,status,SR,status,TA,status,DirAvg,status,SpdAvg,
2009-02-16, 00:00:04,VALID,1004.6,VALID,0,VALID,93.8429,VALID,0,VALID,23.7814,VALID,52,VALID,0,
2009-02-16, 00:01:04,VALID,1004.61,VALID,0,VALID,93.8505,VALID,0,VALID,23.8009,VALID,52,VALID,0,
2009-02-16, 00:02:04,VALID,1004.58,VALID,0,VALID,93.881,VALID,0,VALID,23.8009,VALID,52,VALID,0,
2009-02-16, 00:03:04,VALID,1004.54,VALID,0,VALID,93.8734,VALID,0,VALID,23.7814,VALID,52,VALID,0,
2009-02-16, 00:04:04,VALID,1004.53,VALID,0,VALID,93.8734,VALID,0,VALID,23.7814,VALID,52,VALID,0,
2009-02-16, 00:05:04,VALID,1004.53,VALID,0,VALID,93.8963,VALID,0,VALID,23.7814,VALID,52,VALID,0,
2009-02-16, 00:06:04,VALID,1004.51,VALID,0,VALID,93.8963,VALID,0,VALID,23.7814,VALID,52,VALID,0,
2009-02-16, 00:07:04,VALID,1004.5,VALID,0,VALID,93.9191,VALID,0,VALID,23.7814,VALID,52,VALID,0,
2009-02-16, 00:08:04,VALID,1004.48,VALID,0,VALID,93.9725,VALID,0,VALID,23.7814,VALID,52,VALID,0,
2009-02-16, 00:09:04,VALID,1004.49,VALID,0,VALID,94.0107,VALID,0,VALID,23.8203,VALID,52,VALID,0,
2009-02-16, 00:10:04,VALID,1004.5,VALID,0,VALID,94.0183,VALID,0,VALID,23.7991,VALID,52,VALID,0,
2009-02-16, 00:11:04,VALID,1004.47,VALID,0,VALID,94.0107,VALID,0,VALID,23.8398,VALID,52,VALID,0,
2009-02-16, 00:12:04,VALID,1004.49,VALID,0,VALID,94.0031,VALID,0,VALID,23.8203,VALID,52,VALID,0,
2009-02-16, 00:13:04,VALID,1004.48,VALID,0,VALID,93.9802,VALID,0,VALID,23.7991,VALID,52,VALID,0,
2009-02-16, 00:14:04,VALID,1004.49,VALID,0,VALID,93.9649,VALID,0,VALID,23.8203,VALID,52,VALID,0,
2009-02-16, 00:15:04,VALID,1004.44,VALID,0,VALID,93.9878,VALID,0,VALID,23.8009,VALID,52,VALID,0,
2009-02-16, 00:16:04,VALID,1004.47,VALID,0,VALID,93.9649,VALID,0,VALID,23.8009,VALID,52,VALID,0,
2009-02-16, 00:17:04,VALID,1004.44,VALID,0,VALID,93.9573,VALID,0,VALID,23.8009,VALID,52,VALID,0,
2009-02-16, 00:18:04,VALID,1004.46,VALID,0,VALID,93.9649,VALID,0,VALID,23.7601,VALID,52,VALID,0,
2009-02-16, 00:19:04,VALID,1004.46,VALID,0,VALID,93.9649,VALID,0,VALID,23.7619,VALID,52,VALID,0,
2009-02-16, 00:20:04,VALID,1004.48,VALID,0,VALID,94.0259,VALID,0,VALID,23.7619,VALID,52,VALID,0,
2009-02-16, 00:21:04,VALID,1004.45,VALID,0,VALID,94.0641,VALID,0,VALID,23.8027,VALID,52,VALID,0,
2009-02-16, 00:22:04,VALID,1004.48,VALID,0,VALID,94.0794,VALID,0,VALID,23.7814,VALID,44,VALID,0,
2009-02-16, 00:23:04,VALID,1004.48,VALID,0,VALID,94.0259,VALID,0,VALID,23.7407,VALID,42,VALID,0,
2009-02-16, 00:24:04,VALID,1004.47,VALID,0,VALID,94.087,VALID,0,VALID,23.7619,VALID,42,VALID,0,
2009-02-16, 00:25:04,VALID,1004.49,VALID,0,VALID,94.0946,VALID,0,VALID,23.7407,VALID,42,VALID,0,
2009-02-16, 00:26:04,VALID,1004.46,VALID,0,VALID,94.1328,VALID,0,VALID,23.7425,VALID,42,VALID,0,
2009-02-16, 00:27:04,VALID,1004.47,VALID,0,VALID,94.1556,VALID,0,VALID,23.7814,VALID,42,VALID,0,
2009-02-16, 00:28:04,VALID,1004.44,VALID,0,VALID,94.1862,VALID,0,VALID,23.7814,VALID,42,VALID,0,
2009-02-16, 00:29:04,VALID,1004.45,VALID,0,VALID,94.1556,VALID,0,VALID,23.7601,VALID,42,VALID,0,
2009-02-16, 00:30:04,VALID,1004.43,VALID,0,VALID,94.1938,VALID,0,VALID,23.7814,VALID,42,VALID,0,
2009-02-16, 00:31:04,VALID,1004.4,VALID,0,VALID,94.1785,VALID,0,VALID,23.7814,VALID,42,VALID,0,
2009-02-16, 00:32:04,VALID,1004.37,VALID,0,VALID,94.1785,VALID,0,VALID,23.7814,VALID,42,VALID,0,
2009-02-16, 00:33:04,VALID,1004.36,VALID,0,VALID,94.1785,VALID,0,VALID,23.7814,VALID,42,VALID,0,
2009-02-16, 00:34:04,VALID,1004.36,VALID,0,VALID,94.2396,VALID,0,VALID,23.8009,VALID,42,VALID,0,
2009-02-16, 00:35:04,VALID,1004.34,VALID,0,VALID,94.2472,VALID,0,VALID,23.8009,VALID,42,VALID,0,
2009-02-16, 00:36:04,VALID,1004.33,VALID,0,VALID,94.2624,VALID,0,VALID,23.8203,VALID,42,VALID,0,
2009-02-16, 00:37:04,VALID,1004.32,VALID,0,VALID,94.2701,VALID,0,VALID,23.8203,VALID,42,VALID,0,
2009-02-16, 00:38:04,VALID,1004.32,VALID,0,VALID,94.2777,VALID,0,VALID,23.8398,VALID,42,VALID,0,
2009-02-16, 00:39:04,VALID,1004.33,VALID,0,VALID,94.293,VALID,0,VALID,23.8593,VALID,42,VALID,0,
2009-02-16, 00:40:04,VALID,1004.35,VALID,0,VALID,94.3006,VALID,0,VALID,23.8575,VALID,42,VALID,0,
2009-02-16, 00:41:04,VALID,1004.36,VALID,0,VALID,94.2777,VALID,0,VALID,23.8593,VALID,32,VALID,0,
2009-02-16, 00:42:04,VALID,1004.36,VALID,0,VALID,94.2624,VALID,0,VALID,23.8593,VALID,32,VALID,0,
2009-02-16, 00:43:04,VALID,1004.36,VALID,0,VALID,94.2701,VALID,0,VALID,23.8398,VALID,31,VALID,0,
2009-02-16, 00:44:04,VALID,1004.35,VALID,0,VALID,94.2624,VALID,0,VALID,23.8185,VALID,31,VALID,0,
2009-02-16, 00:45:04,VALID,1004.35,VALID,0,VALID,94.2701,VALID,0,VALID,23.7991,VALID,31,VALID,0,
2009-02-16, 00:46:04,VALID,1004.36,VALID,0,VALID,94.3006,VALID,0,VALID,23.8398,VALID,31,VALID,0,
2009-02-16, 00:47:04,VALID,1004.37,VALID,0,VALID,94.3082,VALID,0,VALID,23.8185,VALID,31,VALID,0,
2009-02-16, 00:48:04,VALID,1004.35,VALID,0,VALID,94.3158,VALID,0,VALID,23.8593,VALID,31,VALID,0,
2009-02-16, 00:49:04,VALID,1004.36,VALID,0,VALID,94.3387,VALID,0,VALID,23.8398,VALID,31,VALID,0,
2009-02-16, 00:50:04,VALID,1004.36,VALID,0,VALID,94.3845,VALID,0,VALID,23.8593,VALID,31,VALID,0,
2009-02-16, 00:51:04,VALID,1004.34,VALID,0,VALID,94.3769,VALID,0,VALID,23.8787,VALID,31,VALID,0,
2009-02-16, 00:52:04,VALID,1004.36,VALID,0,VALID,94.3921,VALID,0,VALID,23.8787,VALID,31,VALID,0,
2009-02-16, 00:53:04,VALID,1004.36,VALID,0,VALID,94.3692,VALID,0,VALID,23.8575,VALID,31,VALID,0,
2009-02-16, 00:54:04,VALID,1004.37,VALID,0,VALID,94.3464,VALID,0,VALID,23.8787,VALID,31,VALID,0,
2009-02-16, 00:55:04,VALID,1004.37,VALID,0,VALID,94.354,VALID,0,VALID,23.838,VALID,31,VALID,0,
2009-02-16, 00:56:04,VALID,1004.37,VALID,0,VALID,94.3387,VALID,0,VALID,23.8593,VALID,31,VALID,0,
2009-02-16, 00:57:04,VALID,1004.4,VALID,0,VALID,94.354,VALID,0,VALID,23.8593,VALID,31,VALID,0,
2009-02-16, 00:58:04,VALID,1004.38,VALID,0,VALID,94.3692,VALID,0,VALID,23.8398,VALID,31,VALID,0,
2009-02-16, 00:59:04,VALID,1004.39,VALID,0,VALID,94.3998,VALID,0,VALID,23.8593,VALID,31,VALID,0,
2009-02-16, 01:00:04,VALID,1004.42,VALID,0,VALID,94.3921,VALID,0,VALID,23.8593,VALID,31,VALID,0,
2009-02-16, 01:01:04,VALID,1004.41,VALID,0,VALID,94.3921,VALID,0,VALID,23.8185,VALID,31,VALID,0,
2009-02-16, 01:02:04,VALID,1004.4,VALID,0,VALID,94.4074,VALID,0,VALID,23.8398,VALID,31,VALID,0,
2009-02-16, 01:03:04,VALID,1004.43,VALID,0,VALID,94.4074,VALID,0,VALID,23.8203,VALID,31,VALID,0,
2009-02-16, 01:04:04,VALID,1004.45,VALID,0,VALID,94.3998,VALID,0,VALID,23.8398,VALID,31,VALID,0,
2009-02-16, 01:05:04,VALID,1004.45,VALID,0,VALID,94.4227,VALID,0,VALID,23.8805,VALID,31,VALID,0,
2009-02-16, 01:06:04,VALID,1004.46,VALID,0,VALID,94.4303,VALID,0,VALID,23.8398,VALID,31,VALID,0,
2009-02-16, 01:07:04,VALID,1004.48,VALID,0,VALID,94.4608,VALID,0,VALID,23.8398,VALID,31,VALID,0,
2009-02-16, 01:08:04,VALID,1004.47,VALID,0,VALID,94.4379,VALID,0,VALID,23.8398,VALID,31,VALID,0,
2009-02-16, 01:09:04,VALID,1004.5,VALID,0,VALID,94.4608,VALID,0,VALID,23.8203,VALID,31,VALID,0,
2009-02-16, 01:10:04,VALID,1004.51,VALID,0,VALID,94.4532,VALID,0,VALID,23.8398,VALID,20,VALID,0,
2009-02-16, 01:11:04,VALID,1004.55,VALID,0,VALID,94.4074,VALID,0,VALID,23.8203,VALID,20,VALID,0,
2009-02-16, 01:12:04,VALID,1004.54,VALID,0,VALID,94.4608,VALID,0,VALID,23.7991,VALID,17,VALID,0.541406,
2009-02-16, 01:13:04,VALID,1004.53,VALID,0,VALID,94.4455,VALID,0,VALID,23.8009,VALID,16,VALID,0.499219,
2009-02-16, 01:14:04,VALID,1004.57,VALID,0,VALID,94.4684,VALID,0,VALID,23.8009,VALID,16,VALID,0.415625,
2009-02-16, 01:15:04,VALID,1004.53,VALID,0,VALID,94.4913,VALID,0,VALID,23.7814,VALID,16,VALID,0.286719,
2009-02-16, 01:16:04,VALID,1004.51,VALID,0,VALID,94.5218,VALID,0,VALID,23.7814,VALID,16,VALID,0.234766,
2009-02-16, 01:17:04,VALID,1004.5,VALID,0,VALID,94.5142,VALID,0,VALID,23.8009,VALID,16,VALID,0,
2009-02-16, 01:18:04,VALID,1004.5,VALID,0,VALID,94.5066,VALID,0,VALID,23.7814,VALID,10,VALID,0,
2009-02-16, 01:19:04,VALID,1004.48,VALID,0,VALID,94.5523,VALID,0,VALID,23.8009,VALID,10,VALID,0.2375,
2009-02-16, 01:20:04,VALID,1004.46,VALID,0,VALID,94.5829,VALID,0,VALID,23.8009,VALID,10,VALID,0.0242187,
2009-02-16, 01:21:04,VALID,1004.44,VALID,0,VALID,94.5905,VALID,0,VALID,23.8203,VALID,10,VALID,0.0535156,
2009-02-16, 01:22:04,VALID,1004.45,VALID,0,VALID,94.5905,VALID,0,VALID,23.8611,VALID,8,VALID,0.543359,
2009-02-16, 01:23:04,VALID,1004.44,VALID,0,VALID,94.6134,VALID,0,VALID,23.8805,VALID,6,VALID,0.535937,
2009-02-16, 01:24:04,VALID,1004.48,VALID,0,VALID,94.6134,VALID,0,VALID,23.8593,VALID,6,VALID,0.610156,
2009-02-16, 01:25:04,VALID,1004.47,VALID,0,VALID,94.5752,VALID,0,VALID,23.8593,VALID,6,VALID,0.452344,
2009-02-16, 01:26:04,VALID,1004.48,VALID,0,VALID,94.56,VALID,0,VALID,23.8611,VALID,6,VALID,0.400781,
2009-02-16, 01:27:04,VALID,1004.44,VALID,0,VALID,94.5676,VALID,0,VALID,23.8398,VALID,6,VALID,0.389062,
2009-02-16, 01:28:04,VALID,1004.47,VALID,0,VALID,94.5829,VALID,0,VALID,23.8398,VALID,358,VALID,0.446094,
2009-02-16, 01:29:04,VALID,1004.43,VALID,0,VALID,94.5981,VALID,0,VALID,23.8398,VALID,357,VALID,0.390234,
2009-02-16, 01:30:04,VALID,1004.4,VALID,0,VALID,94.5981,VALID,0,VALID,23.8398,VALID,357,VALID,0,
2009-02-16, 01:31:04,VALID,1004.37,VALID,0,VALID,94.621,VALID,0,VALID,23.8398,VALID,357,VALID,0,
2009-02-16, 01:32:04,VALID,1004.34,VALID,0,VALID,94.6057,VALID,0,VALID,23.8593,VALID,357,VALID,0.0507813,
2009-02-16, 01:33:04,VALID,1004.33,VALID,0,VALID,94.6439,VALID,0,VALID,23.8787,VALID,357,VALID,0.183203,
2009-02-16, 01:34:04,VALID,1004.32,VALID,0,VALID,94.6668,VALID,0,VALID,23.8982,VALID,357,VALID,0.0183594,
2009-02-16, 01:35:04,VALID,1004.29,VALID,0,VALID,94.6439,VALID,0,VALID,23.8982,VALID,357,VALID,0.233203,
2009-02-16, 01:36:04,VALID,1004.27,VALID,0,VALID,94.6363,VALID,0,VALID,23.9177,VALID,342,VALID,0.237109,
2009-02-16, 01:37:04,VALID,1004.26,VALID,0,VALID,94.5981,VALID,0,VALID,23.9177,VALID,347,VALID,0.532422,
2009-02-16, 01:38:04,VALID,1004.28,VALID,0,VALID,94.5752,VALID,0,VALID,23.8982,VALID,352,VALID,0.380859,
2009-02-16, 01:39:04,VALID,1004.29,VALID,0,VALID,94.5142,VALID,0,VALID,23.8982,VALID,348,VALID,0.633203,
2009-02-16, 01:40:04,VALID,1004.26,VALID,0,VALID,94.4989,VALID,0,VALID,23.8593,VALID,346,VALID,0.33125,
2009-02-16, 01:41:04,VALID,1004.25,VALID,0,VALID,94.5066,VALID,0,VALID,23.8593,VALID,347,VALID,0.578125,
2009-02-16, 01:42:04,VALID,1004.23,VALID,0,VALID,94.4761,VALID,0,VALID,23.8593,VALID,349,VALID,0.322266,
2009-02-16, 01:43:04,VALID,1004.23,VALID,0,VALID,94.5066,VALID,0,VALID,23.8593,VALID,350,VALID,0,
2009-02-16, 01:44:04,VALID,1004.2,VALID,0,VALID,94.4989,VALID,0,VALID,23.8805,VALID,349,VALID,0.261719,
2009-02-16, 01:45:04,VALID,1004.19,VALID,0,VALID,94.4837,VALID,0,VALID,23.8805,VALID,349,VALID,0,
2009-02-16, 01:46:04,VALID,1004.16,VALID,0,VALID,94.4608,VALID,0,VALID,23.8787,VALID,349,VALID,0.0367187,
2009-02-16, 01:47:04,VALID,1004.13,VALID,0,VALID,94.4532,VALID,0,VALID,23.8787,VALID,349,VALID,0,
2009-02-16, 01:48:04,VALID,1004.1,VALID,0,VALID,94.3998,VALID,0,VALID,23.838,VALID,349,VALID,0.266016,
2009-02-16, 01:49:04,VALID,1004.09,VALID,0,VALID,94.4227,VALID,0,VALID,23.8787,VALID,349,VALID,0.0261719,
2009-02-16, 01:50:04,VALID,1004.08,VALID,0,VALID,94.3921,VALID,0,VALID,23.8787,VALID,349,VALID,0.269531,
2009-02-16, 01:51:04,VALID,1004.05,VALID,0,VALID,94.3387,VALID,0,VALID,23.8805,VALID,349,VALID,0.359375,
2009-02-16, 01:52:04,VALID,1004.05,VALID,0,VALID,94.3158,VALID,0,VALID,23.8593,VALID,348,VALID,0.462109,
2009-02-16, 01:53:04,VALID,1004.04,VALID,0,VALID,94.2853,VALID,0,VALID,23.8593,VALID,348,VALID,0.415625,
2009-02-16, 01:54:04,VALID,1004,VALID,0,VALID,94.2777,VALID,0,VALID,23.8398,VALID,348,VALID,0.415625,
2009-02-16, 01:55:04,VALID,1003.98,VALID,0,VALID,94.2548,VALID,0,VALID,23.8398,VALID,348,VALID,0.297656,
2009-02-16, 01:56:04,VALID,1003.97,VALID,0,VALID,94.2243,VALID,0,VALID,23.8398,VALID,347,VALID,0.195703,
2009-02-16, 01:57:04,VALID,1003.97,VALID,0,VALID,94.2701,VALID,0,VALID,23.8416,VALID,347,VALID,0.0183594,
2009-02-16, 01:58:04,VALID,1003.94,VALID,0,VALID,94.2624,VALID,0,VALID,23.8203,VALID,347,VALID,0,
2009-02-16, 01:59:04,VALID,1003.94,VALID,0,VALID,94.2472,VALID,0,VALID,23.8009,VALID,347,VALID,0,
2009-02-16, 02:00:04,VALID,1003.9,VALID,0,VALID,94.2472,VALID,0,VALID,23.8009,VALID,347,VALID,0,
2009-02-16, 02:01:04,VALID,1003.91,VALID,0,VALID,94.2396,VALID,0,VALID,23.7601,VALID,347,VALID,0,
2009-02-16, 02:02:04,VALID,1003.91,VALID,0,VALID,94.2014,VALID,0,VALID,23.7619,VALID,347,VALID,0.353516,
2009-02-16, 02:03:04,VALID,1003.9,VALID,0,VALID,94.2396,VALID,0,VALID,23.7425,VALID,347,VALID,0.0496094,
2009-02-16, 02:04:04,VALID,1003.89,VALID,0,VALID,94.2853,VALID,0,VALID,23.7425,VALID,347,VALID,0.191406,
2009-02-16, 02:05:04,VALID,1003.85,VALID,0,VALID,94.2853,VALID,0,VALID,23.723,VALID,347,VALID,0.0539063,
2009-02-16, 02:06:04,VALID,1003.88,VALID,0,VALID,94.3082,VALID,0,VALID,23.723,VALID,347,VALID,0.191406,
2009-02-16, 02:07:04,VALID,1003.88,VALID,0,VALID,94.3158,VALID,0,VALID,23.723,VALID,347,VALID,0.171484,
2009-02-16, 02:08:04,VALID,1003.89,VALID,0,VALID,94.3235,VALID,0,VALID,23.7035,VALID,347,VALID,0.380859,
2009-02-16, 02:09:04,VALID,1003.89,VALID,0,VALID,94.3464,VALID,0,VALID,23.7035,VALID,347,VALID,0.386719,
2009-02-16, 02:10:04,VALID,1003.92,VALID,0,VALID,94.354,VALID,0,VALID,23.6841,VALID,347,VALID,0.300391,
2009-02-16, 02:11:04,VALID,1003.89,VALID,0,VALID,94.354,VALID,0,VALID,23.6841,VALID,347,VALID,0.442187,
2009-02-16, 02:12:04,VALID,1003.88,VALID,0,VALID,94.3692,VALID,0,VALID,23.6646,VALID,347,VALID,0.326172,
2009-02-16, 02:13:04,VALID,1003.89,VALID,0,VALID,94.3845,VALID,0,VALID,23.6452,VALID,347,VALID,0.342969,
2009-02-16, 02:14:04,VALID,1003.9,VALID,0,VALID,94.3845,VALID,0,VALID,23.6452,VALID,347,VALID,0,
2009-02-16, 02:15:04,VALID,1003.89,VALID,0,VALID,94.3998,VALID,0,VALID,23.6664,VALID,347,VALID,0,
2009-02-16, 02:16:04,VALID,1003.89,VALID,0,VALID,94.3845,VALID,0,VALID,23.6452,VALID,347,VALID,0,
2009-02-16, 02:17:04,VALID,1003.91,VALID,0,VALID,94.3769,VALID,0,VALID,23.6044,VALID,347,VALID,0,
2009-02-16, 02:18:04,VALID,1003.9,VALID,0,VALID,94.3998,VALID,0,VALID,23.5868,VALID,347,VALID,0.0921875,
2009-02-16, 02:19:04,VALID,1003.92,VALID,0,VALID,94.3692,VALID,0,VALID,23.5868,VALID,347,VALID,0.210547,
2009-02-16, 02:20:04,VALID,1003.93,VALID,0,VALID,94.3692,VALID,0,VALID,23.5478,VALID,347,VALID,0.146094,
2009-02-16, 02:21:04,VALID,1003.97,VALID,0,VALID,94.3845,VALID,0,VALID,23.546,VALID,5,VALID,0.357422,
2009-02-16, 02:22:04,VALID,1003.96,VALID,0,VALID,94.3998,VALID,0,VALID,23.5284,VALID,33,VALID,0.332031,
2009-02-16, 02:23:04,VALID,1003.97,VALID,0,VALID,94.4227,VALID,0,VALID,23.5284,VALID,43,VALID,0.45625,
2009-02-16, 02:24:04,VALID,1003.98,VALID,0,VALID,94.4303,VALID,0,VALID,23.5284,VALID,48,VALID,0.390625,
2009-02-16, 02:25:04,VALID,1003.99,VALID,0,VALID,94.415,VALID,0,VALID,23.4877,VALID,48,VALID,0.301953,
2009-02-16, 02:26:04,VALID,1003.99,VALID,0,VALID,94.4532,VALID,0,VALID,23.5089,VALID,48,VALID,0.171094,
2009-02-16, 02:27:04,VALID,1003.98,VALID,0,VALID,94.4455,VALID,0,VALID,23.5284,VALID,48,VALID,0.314453,
2009-02-16, 02:28:04,VALID,1004,VALID,0,VALID,94.4303,VALID,0,VALID,23.5089,VALID,48,VALID,0.274219,
2009-02-16, 02:29:04,VALID,1003.97,VALID,0,VALID,94.4379,VALID,0,VALID,23.5089,VALID,48,VALID,0.0203125,
2009-02-16, 02:30:04,VALID,1003.94,VALID,0,VALID,94.4837,VALID,0,VALID,23.5284,VALID,48,VALID,0.304297,
2009-02-16, 02:31:04,VALID,1003.96,VALID,0,VALID,94.4455,VALID,0,VALID,23.5496,VALID,48,VALID,0.267578,
2009-02-16, 02:32:04,VALID,1003.97,VALID,0,VALID,94.4684,VALID,0,VALID,23.5284,VALID,47,VALID,0.3875,
2009-02-16, 02:33:04,VALID,1003.99,VALID,0,VALID,94.4837,VALID,0,VALID,23.5496,VALID,47,VALID,0.257813,
2009-02-16, 02:34:04,VALID,1003.97,VALID,0,VALID,94.4761,VALID,0,VALID,23.5478,VALID,47,VALID,0.147656,
2009-02-16, 02:35:04,VALID,1003.99,VALID,0,VALID,94.4837,VALID,0,VALID,23.5478,VALID,47,VALID,0.266797,
2009-02-16, 02:36:04,VALID,1003.96,VALID,0,VALID,94.4684,VALID,0,VALID,23.5478,VALID,47,VALID,0.266406,
2009-02-16, 02:37:04,VALID,1003.98,VALID,0,VALID,94.4761,VALID,0,VALID,23.5478,VALID,47,VALID,0.347656,
2009-02-16, 02:38:04,VALID,1003.98,VALID,0,VALID,94.5066,VALID,0,VALID,23.5673,VALID,47,VALID,0.317187,
2009-02-16, 02:39:04,VALID,1004.01,VALID,0,VALID,94.5066,VALID,0,VALID,23.5673,VALID,47,VALID,0.317969,
2009-02-16, 02:40:04,VALID,1003.98,VALID,0,VALID,94.5066,VALID,0,VALID,23.5655,VALID,47,VALID,0.451562,
2009-02-16, 02:41:04,VALID,1003.98,VALID,0,VALID,94.5218,VALID,0,VALID,23.5868,VALID,47,VALID,0.276953,
2009-02-16, 02:42:04,VALID,1004,VALID,0,VALID,94.5295,VALID,0,VALID,23.5868,VALID,47,VALID,0.323047,
2009-02-16, 02:43:04,VALID,1004,VALID,0,VALID,94.5218,VALID,0,VALID,23.5868,VALID,47,VALID,0.424609,
2009-02-16, 02:44:04,VALID,1003.99,VALID,0,VALID,94.5142,VALID,0,VALID,23.5655,VALID,47,VALID,0.234766,
2009-02-16, 02:45:04,VALID,1004,VALID,0,VALID,94.5295,VALID,0,VALID,23.546,VALID,47,VALID,0.135547,
2009-02-16, 02:46:04,VALID,1003.99,VALID,0,VALID,94.5447,VALID,0,VALID,23.5655,VALID,47,VALID,0,
2009-02-16, 02:47:04,VALID,1003.97,VALID,0,VALID,94.5218,VALID,0,VALID,23.5868,VALID,47,VALID,0.0148437,
2009-02-16, 02:48:04,VALID,1003.96,VALID,0,VALID,94.4684,VALID,0,VALID,23.5868,VALID,47,VALID,0.0964844,
2009-02-16, 02:49:04,VALID,1004,VALID,0,VALID,94.4227,VALID,0,VALID,23.5673,VALID,47,VALID,0.122656,
2009-02-16, 02:50:04,VALID,1003.96,VALID,0,VALID,94.4455,VALID,0,VALID,23.5673,VALID,47,VALID,0,
2009-02-16, 02:51:04,VALID,1003.95,VALID,0,VALID,94.4684,VALID,0,VALID,23.5673,VALID,47,VALID,0.0914062,
2009-02-16, 02:52:04,VALID,1003.94,VALID,0,VALID,94.5218,VALID,0,VALID,23.5868,VALID,47,VALID,0.213672,
2009-02-16, 02:53:04,VALID,1003.94,VALID,0,VALID,94.5371,VALID,0,VALID,23.6257,VALID,47,VALID,0.331641,
2009-02-16, 02:54:04,VALID,1003.96,VALID,0,VALID,94.5295,VALID,0,VALID,23.6257,VALID,47,VALID,0.316016,
2009-02-16, 02:55:04,VALID,1003.95,VALID,0,VALID,94.5142,VALID,0,VALID,23.6257,VALID,41,VALID,0.469141,
2009-02-16, 02:56:04,VALID,1003.96,VALID,0,VALID,94.4761,VALID,0,VALID,23.6257,VALID,22,VALID,0.561328,
2009-02-16, 02:57:04,VALID,1003.97,VALID,0,VALID,94.4989,VALID,0,VALID,23.6257,VALID,20,VALID,0.615625,
2009-02-16, 02:58:04,VALID,1003.99,VALID,0,VALID,94.5142,VALID,0,VALID,23.6452,VALID,14,VALID,0.459766,
2009-02-16, 02:59:04,VALID,1003.99,VALID,0,VALID,94.4913,VALID,0,VALID,23.6257,VALID,13,VALID,0.492188,
2009-02-16, 03:00:04,VALID,1004.03,VALID,0,VALID,94.4913,VALID,0,VALID,23.6452,VALID,13,VALID,0.448047,
2009-02-16, 03:01:04,VALID,1004,VALID,0,VALID,94.4913,VALID,0,VALID,23.6257,VALID,13,VALID,0.425391,
2009-02-16, 03:02:04,VALID,1004.02,VALID,0,VALID,94.4684,VALID,0,VALID,23.6257,VALID,13,VALID,0.314453,
2009-02-16, 03:03:04,VALID,1004.02,VALID,0,VALID,94.5066,VALID,0,VALID,23.6062,VALID,13,VALID,0.234766,
2009-02-16, 03:04:04,VALID,1004.03,VALID,0,VALID,94.4989,VALID,0,VALID,23.6062,VALID,13,VALID,0.28125,
2009-02-16, 03:05:04,VALID,1004.03,VALID,0,VALID,94.4684,VALID,0,VALID,23.6062,VALID,13,VALID,0.404297,
2009-02-16, 03:06:04,VALID,1004.03,VALID,0,VALID,94.4989,VALID,0,VALID,23.6062,VALID,13,VALID,0.374609,
2009-02-16, 03:07:04,VALID,1004.05,VALID,0,VALID,94.4761,VALID,0,VALID,23.6062,VALID,13,VALID,0.346875,
2009-02-16, 03:08:04,VALID,1004.05,VALID,0,VALID,94.5142,VALID,0,VALID,23.6062,VALID,13,VALID,0.250391,
2009-02-16, 03:09:04,VALID,1004.08,VALID,0,VALID,94.4684,VALID,0,VALID,23.6062,VALID,13,VALID,0.319531,
2009-02-16, 03:10:04,VALID,1004.09,VALID,0,VALID,94.4379,VALID,0,VALID,23.608,VALID,13,VALID,0.169922,
2009-02-16, 03:11:04,VALID,1004.06,VALID,0,VALID,94.4455,VALID,0,VALID,23.5868,VALID,13,VALID,0.242188,
2009-02-16, 03:12:04,VALID,1004.07,VALID,0,VALID,94.4608,VALID,0,VALID,23.546,VALID,13,VALID,0.173047,
2009-02-16, 03:13:04,VALID,1004.06,VALID,0,VALID,94.4379,VALID,0,VALID,23.5673,VALID,13,VALID,0.367188,
2009-02-16, 03:14:04,VALID,1004.08,VALID,0,VALID,94.3692,VALID,0,VALID,23.5478,VALID,52,VALID,0.529297,
2009-02-16, 03:15:04,VALID,1004.06,VALID,0,VALID,94.3387,VALID,0,VALID,23.5284,VALID,52,VALID,0.410156,
2009-02-16, 03:16:04,VALID,1004.07,VALID,0,VALID,94.354,VALID,0,VALID,23.5496,VALID,52,VALID,0.339844,
2009-02-16, 03:17:04,VALID,1004.04,VALID,0,VALID,94.3692,VALID,0,VALID,23.5284,VALID,52,VALID,0.439453,
2009-02-16, 03:18:04,VALID,1004.05,VALID,0,VALID,94.3464,VALID,0,VALID,23.5284,VALID,52,VALID,0.366406,
2009-02-16, 03:19:04,VALID,1004.04,VALID,0,VALID,94.3235,VALID,0,VALID,23.5478,VALID,52,VALID,0.183594,
2009-02-16, 03:20:04,VALID,1004.05,VALID,0,VALID,94.3464,VALID,0,VALID,23.5673,VALID,52,VALID,0.39375,
2009-02-16, 03:21:04,VALID,1004.05,VALID,0,VALID,94.3235,VALID,0,VALID,23.5478,VALID,52,VALID,0.263672,
2009-02-16, 03:22:04,VALID,1004.08,VALID,0,VALID,94.293,VALID,0,VALID,23.5478,VALID,52,VALID,0.203125,
2009-02-16, 03:23:04,VALID,1004.08,VALID,0,VALID,94.3006,VALID,0,VALID,23.5673,VALID,52,VALID,0.290234,
2009-02-16, 03:24:04,VALID,1004.05,VALID,0,VALID,94.2853,VALID,0,VALID,23.5673,VALID,52,VALID,0.133203,
2009-02-16, 03:25:04,VALID,1004.08,VALID,0,VALID,94.2548,VALID,0,VALID,23.5478,VALID,52,VALID,0.00117188,
2009-02-16, 03:26:04,VALID,1004.06,VALID,0,VALID,94.2472,VALID,0,VALID,23.5673,VALID,52,VALID,0.0671875,
2009-02-16, 03:27:04,VALID,1004.06,VALID,0,VALID,94.2243,VALID,0,VALID,23.5478,VALID,52,VALID,0.281641,
2009-02-16, 03:28:04,VALID,1004.04,VALID,0,VALID,94.209,VALID,0,VALID,23.546,VALID,66,VALID,0.345313,
2009-02-16, 03:29:04,VALID,1004.01,VALID,0,VALID,94.1938,VALID,0,VALID,23.5478,VALID,65,VALID,0.507813,
2009-02-16, 03:30:04,VALID,1004.03,VALID,0,VALID,94.1785,VALID,0,VALID,23.5478,VALID,65,VALID,0.614453,
2009-02-16, 03:31:04,VALID,1004,VALID,0,VALID,94.1633,VALID,0,VALID,23.5478,VALID,64,VALID,0.520703,
2009-02-16, 03:32:04,VALID,1004.01,VALID,0,VALID,94.1633,VALID,0,VALID,23.5478,VALID,69,VALID,0.328516,
2009-02-16, 03:33:04,VALID,1004,VALID,0,VALID,94.1633,VALID,0,VALID,23.5478,VALID,69,VALID,0.516797,
2009-02-16, 03:34:04,VALID,1004,VALID,0,VALID,94.1251,VALID,0,VALID,23.5266,VALID,70,VALID,0.596875,
2009-02-16, 03:35:04,VALID,1004.02,VALID,0,VALID,94.1251,VALID,0,VALID,23.5478,VALID,69,VALID,0.401172,
2009-02-16, 03:36:04,VALID,1003.99,VALID,0,VALID,94.148,VALID,0,VALID,23.5496,VALID,77,VALID,0.283594,
2009-02-16, 03:37:04,VALID,1003.99,VALID,0,VALID,94.148,VALID,0,VALID,23.5478,VALID,77,VALID,0.283203,
2009-02-16, 03:38:04,VALID,1003.99,VALID,0,VALID,94.087,VALID,0,VALID,23.4877,VALID,77,VALID,0.496484,
2009-02-16, 03:39:04,VALID,1003.99,VALID,0,VALID,94.0794,VALID,0,VALID,23.4894,VALID,94,VALID,0.358594,
2009-02-16, 03:40:04,VALID,1003.97,VALID,0,VALID,94.0717,VALID,0,VALID,23.5089,VALID,94,VALID,0.348047,
2009-02-16, 03:41:04,VALID,1003.99,VALID,0,VALID,94.0717,VALID,0,VALID,23.4894,VALID,94,VALID,0.502734,
2009-02-16, 03:42:04,VALID,1003.99,VALID,0,VALID,94.0641,VALID,0,VALID,23.47,VALID,94,VALID,0.197266,
2009-02-16, 03:43:04,VALID,1003.98,VALID,0,VALID,94.0488,VALID,0,VALID,23.4682,VALID,93,VALID,0.385156,
2009-02-16, 03:44:04,VALID,1004.01,VALID,0,VALID,94.0259,VALID,0,VALID,23.47,VALID,93,VALID,0.0382813,
2009-02-16, 03:45:04,VALID,1004.02,VALID,0,VALID,94.0183,VALID,0,VALID,23.47,VALID,93,VALID,0.447266,
2009-02-16, 03:46:04,VALID,1004.06,VALID,0,VALID,94.0107,VALID,0,VALID,23.4505,VALID,89,VALID,0.494922,
2009-02-16, 03:47:04,VALID,1004.04,VALID,0,VALID,94.0183,VALID,0,VALID,23.4505,VALID,75,VALID,0.394922,
2009-02-16, 03:48:04,VALID,1004.02,VALID,0,VALID,93.9802,VALID,0,VALID,23.4311,VALID,75,VALID,0.00703125,
2009-02-16, 03:49:04,VALID,1004.05,VALID,0,VALID,93.9954,VALID,0,VALID,23.4505,VALID,75,VALID,0,
2009-02-16, 03:50:04,VALID,1004.08,VALID,0,VALID,93.9878,VALID,0,VALID,23.4311,VALID,75,VALID,0,
2009-02-16, 03:51:04,VALID,1004.08,VALID,0,VALID,93.9497,VALID,0,VALID,23.3921,VALID,75,VALID,0.0164062,